N1CU KALB-KRDU

Flight info

Callsign N1CU
Flight time 2h 26m
Altitude 38000
Route PWL BIZEX Q75 GVE MELTN ALDAN4
Aircraft CL60/M-SBDE1E2E3FGHIJ1J4J5J7M3RWXYZ/LB1V1D1

Departure

Time 2026-05-07 00:36
Airport Albany International Airport (KALB)

Arrival

Time 2026-05-07 03:02
Airport Raleigh-Durham International Airport (KRDU)
Time Latitude Longitude Altitude Speed Heading
2026-05-07 00:00 42.74011 -73.80691 283 ft 0 kts 320°
2026-05-07 00:24 42.74020 -73.80693 283 ft 3 kts
2026-05-07 00:25 42.74043 -73.80688 283 ft 1 kts 35°
2026-05-07 00:25 42.74043 -73.80667 283 ft 3 kts 140°
2026-05-07 00:25 42.74008 -73.80656 283 ft 5 kts 153°
2026-05-07 00:25 42.74000 -73.80640 283 ft 0 kts 98°
2026-05-07 00:33 42.73995 -73.80595 284 ft 7 kts 136°
2026-05-07 00:33 42.73931 -73.80584 284 ft 11 kts 179°
2026-05-07 00:33 42.73844 -73.80579 285 ft 13 kts 179°
2026-05-07 00:34 42.73763 -73.80575 286 ft 8 kts 168°
2026-05-07 00:34 42.73729 -73.80537 286 ft 2 kts 105°
2026-05-07 00:34 42.73727 -73.80494 286 ft 6 kts 89°
2026-05-07 00:34 42.73739 -73.80434 287 ft 5 kts 39°
2026-05-07 00:35 42.73773 -73.80428 286 ft 0 kts 358°
2026-05-07 00:35 42.73784 -73.80428 286 ft 14 kts 358°
2026-05-07 00:35 42.74258 -73.80450 282 ft 121 kts 358°
2026-05-07 00:35 42.75301 -73.80477 779 ft 166 kts 360°
2026-05-07 00:36 42.76539 -73.80389 1669 ft 194 kts
2026-05-07 00:36 42.77798 -73.79677 2488 ft 209 kts 39°
2026-05-07 00:36 42.78501 -73.77921 3370 ft 232 kts 78°
2026-05-07 00:36 42.78283 -73.75655 4440 ft 260 kts 114°
2026-05-07 00:37 42.77280 -73.73587 5712 ft 274 kts 139°
2026-05-07 00:37 42.75671 -73.72305 7194 ft 274 kts 164°
2026-05-07 00:37 42.73876 -73.71420 8625 ft 280 kts 168°
2026-05-07 00:37 42.72044 -73.70953 10101 ft 275 kts 182°
2026-05-07 00:38 42.70160 -73.70742 11510 ft 278 kts 183°
2026-05-07 00:38 42.68262 -73.70527 12853 ft 281 kts 182°
2026-05-07 00:38 42.66327 -73.70307 14051 ft 287 kts 184°
2026-05-07 00:38 42.64290 -73.70085 14865 ft 304 kts 183°
2026-05-07 00:39 42.62157 -73.69843 15887 ft 312 kts 184°
2026-05-07 00:39 42.59993 -73.69597 16868 ft 320 kts 184°
2026-05-07 00:39 42.57776 -73.69341 17775 ft 327 kts 184°
2026-05-07 00:39 42.55482 -73.69077 18717 ft 333 kts 184°
2026-05-07 00:40 42.53194 -73.68810 19690 ft 336 kts 185°
2026-05-07 00:40 42.50854 -73.68541 20495 ft 343 kts 184°
2026-05-07 00:40 42.48459 -73.68265 21325 ft 348 kts 185°
2026-05-07 00:40 42.46019 -73.67982 22127 ft 354 kts 185°
2026-05-07 00:41 42.43546 -73.67699 22851 ft 361 kts 185°
2026-05-07 00:41 42.41045 -73.67409 23650 ft 366 kts 186°
2026-05-07 00:41 42.38479 -73.67111 24421 ft 370 kts 187°
2026-05-07 00:41 42.35900 -73.66814 25127 ft 375 kts 187°
2026-05-07 00:42 42.33295 -73.66515 25827 ft 380 kts 187°
2026-05-07 00:42 42.30680 -73.66210 26572 ft 383 kts 188°
2026-05-07 00:42 42.28003 -73.65904 27140 ft 389 kts 189°
2026-05-07 00:42 42.25299 -73.65592 27783 ft 392 kts 189°
2026-05-07 00:43 42.22582 -73.65280 28349 ft 396 kts 189°
2026-05-07 00:43 42.19841 -73.64961 28993 ft 398 kts 190°
2026-05-07 00:43 42.17053 -73.64647 29359 ft 406 kts 190°
2026-05-07 00:43 42.14220 -73.64317 30013 ft 406 kts 191°
2026-05-07 00:44 42.11394 -73.63993 30464 ft 411 kts 191°
2026-05-07 00:44 42.08533 -73.63669 30850 ft 416 kts 190°
2026-05-07 00:44 42.05617 -73.63333 31302 ft 420 kts 191°
2026-05-07 00:44 42.02667 -73.62996 31713 ft 423 kts 190°
2026-05-07 00:45 41.99766 -73.62664 32114 ft 426 kts 190°
2026-05-07 00:45 41.96802 -73.62320 32630 ft 426 kts 191°
2026-05-07 00:45 41.93826 -73.61985 32819 ft 433 kts 190°
2026-05-07 00:45 41.90767 -73.61636 33193 ft 436 kts 190°
2026-05-07 00:46 41.87756 -73.61292 33529 ft 438 kts 191°
2026-05-07 00:46 41.84668 -73.60939 33872 ft 440 kts 190°
2026-05-07 00:46 41.81637 -73.60586 34491 ft 436 kts 191°
2026-05-07 00:46 41.78804 -73.60258 35005 ft 433 kts 191°
2026-05-07 00:47 41.75819 -73.59978 35461 ft 427 kts 193°
2026-05-07 00:47 41.72866 -73.59849 35928 ft 424 kts 194°
2026-05-07 00:47 41.69925 -73.59731 36338 ft 423 kts 194°
2026-05-07 00:47 41.66984 -73.59611 36693 ft 424 kts 194°
2026-05-07 00:48 41.64014 -73.59492 37052 ft 424 kts 194°
2026-05-07 00:48 41.61047 -73.59373 37321 ft 426 kts 194°
2026-05-07 00:48 41.58102 -73.59252 37743 ft 425 kts 194°
2026-05-07 00:48 41.55145 -73.59137 37822 ft 431 kts 194°
2026-05-07 00:49 41.49015 -73.58903 37828 ft 444 kts 193°
2026-05-07 00:49 41.42770 -73.58649 37829 ft 448 kts 193°
2026-05-07 00:50 41.36625 -73.58717 37832 ft 430 kts 201°
2026-05-07 00:50 41.33735 -73.59387 37831 ft 415 kts 208°
2026-05-07 00:50 41.30998 -73.60502 37830 ft 401 kts 215°
2026-05-07 00:51 41.28501 -73.61979 37831 ft 390 kts 221°
2026-05-07 00:51 41.26199 -73.63799 37828 ft 379 kts 226°
2026-05-07 00:51 41.22298 -73.68250 37829 ft 360 kts 237°
2026-05-07 00:52 41.19129 -73.73351 37825 ft 354 kts 240°
2026-05-07 00:52 41.16019 -73.78462 37829 ft 356 kts 241°
2026-05-07 00:53 41.12942 -73.83603 37825 ft 356 kts 241°
2026-05-07 00:53 41.09855 -73.88799 37827 ft 355 kts 242°
2026-05-07 00:54 41.06788 -73.93951 37827 ft 355 kts 242°
2026-05-07 00:54 41.03721 -73.99093 37832 ft 356 kts 242°
2026-05-07 00:55 41.00653 -74.04227 37832 ft 355 kts 242°
2026-05-07 00:55 40.97574 -74.09370 37834 ft 354 kts 242°
2026-05-07 00:56 40.94516 -74.14467 37839 ft 353 kts 242°
2026-05-07 00:56 40.91469 -74.19539 37839 ft 353 kts 242°
2026-05-07 00:57 40.88457 -74.24543 37836 ft 353 kts 242°
2026-05-07 00:57 40.85416 -74.29588 37840 ft 353 kts 242°
2026-05-07 00:58 40.82349 -74.34669 37838 ft 352 kts 242°
2026-05-07 00:58 40.79299 -74.39711 37842 ft 352 kts 243°
2026-05-07 00:59 40.74700 -74.47304 37852 ft 353 kts 242°
2026-05-07 01:00 40.71629 -74.52364 37855 ft 353 kts 242°
2026-05-07 01:00 40.68578 -74.57381 37848 ft 353 kts 242°
2026-05-07 01:01 40.65502 -74.62429 37842 ft 352 kts 242°
2026-05-07 01:01 40.62465 -74.67406 37850 ft 351 kts 241°
2026-05-07 01:02 40.59395 -74.72430 37852 ft 352 kts 242°
2026-05-07 01:02 40.56143 -74.77312 37854 ft 357 kts 238°
2026-05-07 01:03 40.52765 -74.82078 37851 ft 355 kts 239°
2026-05-07 01:03 40.49370 -74.86872 37851 ft 359 kts 239°
2026-05-07 01:04 40.45933 -74.91725 37857 ft 365 kts 238°
2026-05-07 01:04 40.42467 -74.96604 37856 ft 367 kts 239°
2026-05-07 01:05 40.38982 -75.01502 37855 ft 367 kts 239°
2026-05-07 01:05 40.35497 -75.06391 37858 ft 365 kts 239°
2026-05-07 01:06 40.32011 -75.11277 37857 ft 365 kts 238°
2026-05-07 01:06 40.28534 -75.16144 37864 ft 365 kts 238°
2026-05-07 01:07 40.25081 -75.20968 37869 ft 365 kts 239°
2026-05-07 01:07 40.21606 -75.25817 37864 ft 364 kts 238°
2026-05-07 01:08 40.18169 -75.30603 37874 ft 363 kts 239°
2026-05-07 01:08 40.14716 -75.35409 37872 ft 364 kts 239°
2026-05-07 01:09 40.11250 -75.40223 37870 ft 363 kts 239°
2026-05-07 01:09 40.07772 -75.45046 37876 ft 363 kts 239°
2026-05-07 01:10 40.04309 -75.49843 37878 ft 363 kts 238°
2026-05-07 01:10 40.00841 -75.54637 37883 ft 363 kts 239°
2026-05-07 01:11 39.97365 -75.59434 37879 ft 363 kts 239°
2026-05-07 01:11 39.93903 -75.64203 37882 ft 361 kts 240°
2026-05-07 01:12 39.90619 -75.68946 37882 ft 356 kts 243°
2026-05-07 01:12 39.87490 -75.73973 37884 ft 357 kts 242°
2026-05-07 01:13 39.84403 -75.78912 37883 ft 358 kts 242°
2026-05-07 01:13 39.81251 -75.83947 37884 ft 356 kts 242°
2026-05-07 01:14 39.78106 -75.88963 37881 ft 357 kts 243°
2026-05-07 01:14 39.74946 -75.93996 37883 ft 359 kts 242°
2026-05-07 01:15 39.71782 -75.99025 37887 ft 360 kts 243°
2026-05-07 01:15 39.68594 -76.04079 37883 ft 359 kts 242°
2026-05-07 01:16 39.65416 -76.09107 37891 ft 358 kts 242°
2026-05-07 01:16 39.62271 -76.14082 37889 ft 359 kts 242°
2026-05-07 01:17 39.59063 -76.19112 37887 ft 360 kts 241°
2026-05-07 01:17 39.55830 -76.24089 37889 ft 360 kts 242°
2026-05-07 01:18 39.52600 -76.29052 37892 ft 360 kts 241°
2026-05-07 01:18 39.49358 -76.34024 37895 ft 360 kts 241°
2026-05-07 01:19 39.46101 -76.38954 37896 ft 363 kts 238°
2026-05-07 01:19 39.42538 -76.43646 37897 ft 366 kts 237°
2026-05-07 01:20 39.38932 -76.48357 37897 ft 366 kts 237°
2026-05-07 01:20 39.35347 -76.53035 37898 ft 366 kts 238°
2026-05-07 01:21 39.31740 -76.57737 37897 ft 367 kts 238°
2026-05-07 01:21 39.28140 -76.62423 37899 ft 368 kts 238°
2026-05-07 01:22 39.24565 -76.67072 37901 ft 369 kts 237°
2026-05-07 01:22 39.20937 -76.71782 37899 ft 370 kts 236°
2026-05-07 01:23 39.17293 -76.76502 37903 ft 370 kts 237°
2026-05-07 01:23 39.13653 -76.81212 37911 ft 369 kts 237°
2026-05-07 01:24 39.10020 -76.85907 37917 ft 369 kts 236°
2026-05-07 01:24 39.06391 -76.90588 37912 ft 368 kts 236°
2026-05-07 01:25 39.02749 -76.95280 37921 ft 367 kts 236°
2026-05-07 01:25 38.99128 -76.99940 37915 ft 368 kts 236°
2026-05-07 01:26 38.95511 -77.04598 37910 ft 369 kts 237°
2026-05-07 01:26 38.91862 -77.09289 37912 ft 369 kts 236°
2026-05-07 01:27 38.88233 -77.13945 37914 ft 368 kts 236°
2026-05-07 01:27 38.84609 -77.18588 37911 ft 368 kts 237°
2026-05-07 01:28 38.80961 -77.23257 37913 ft 369 kts 236°
2026-05-07 01:28 38.77279 -77.27962 37911 ft 370 kts 237°
2026-05-07 01:29 38.73642 -77.32600 37906 ft 371 kts 237°
2026-05-07 01:29 38.69802 -77.37126 37909 ft 374 kts 234°
2026-05-07 01:30 38.65936 -77.41590 37909 ft 373 kts 235°
2026-05-07 01:30 38.62091 -77.46025 37913 ft 373 kts 235°
2026-05-07 01:31 38.58238 -77.50466 37909 ft 375 kts 234°
2026-05-07 01:31 38.54346 -77.54942 37910 ft 374 kts 235°
2026-05-07 01:32 38.50463 -77.59405 37901 ft 375 kts 235°
2026-05-07 01:32 38.46590 -77.63850 37904 ft 377 kts 235°
2026-05-07 01:33 38.42663 -77.68348 37911 ft 377 kts 233°
2026-05-07 01:33 38.38745 -77.72828 37908 ft 377 kts 234°
2026-05-07 01:34 38.34826 -77.77303 37913 ft 376 kts 234°
2026-05-07 01:34 38.30962 -77.81706 37909 ft 374 kts 234°
2026-05-07 01:35 38.27057 -77.86156 37911 ft 375 kts 233°
2026-05-07 01:35 38.23156 -77.90591 37911 ft 375 kts 234°
2026-05-07 01:36 38.19249 -77.95029 37905 ft 375 kts 233°
2026-05-07 01:36 38.15336 -77.99466 37898 ft 376 kts 234°
2026-05-07 01:37 38.11422 -78.03898 37899 ft 377 kts 233°
2026-05-07 01:37 38.07507 -78.08322 37896 ft 377 kts 234°
2026-05-07 01:38 38.03612 -78.12703 37897 ft 378 kts 232°
2026-05-07 01:38 37.99073 -78.16479 37902 ft 402 kts 220°
2026-05-07 01:39 37.93834 -78.19302 37902 ft 409 kts 217°
2026-05-07 01:39 37.88669 -78.22027 37903 ft 410 kts 217°
2026-05-07 01:40 37.83383 -78.24815 37902 ft 410 kts 218°
2026-05-07 01:40 37.78130 -78.27584 37898 ft 409 kts 218°
2026-05-07 01:41 37.72867 -78.30353 37900 ft 408 kts 218°
2026-05-07 01:41 37.67590 -78.33130 37901 ft 408 kts 218°
2026-05-07 01:41 37.64957 -78.34515 37742 ft 412 kts 218°
2026-05-07 01:42 37.62276 -78.35931 37270 ft 416 kts 217°
2026-05-07 01:42 37.59635 -78.37315 36777 ft 414 kts 217°
2026-05-07 01:42 37.56959 -78.38715 36240 ft 412 kts 217°
2026-05-07 01:42 37.54305 -78.40105 35703 ft 412 kts 217°
2026-05-07 01:43 37.51677 -78.41482 35166 ft 413 kts 216°
2026-05-07 01:43 37.49000 -78.42883 34610 ft 412 kts 216°
2026-05-07 01:43 37.46346 -78.44272 34067 ft 413 kts 216°
2026-05-07 01:43 37.43681 -78.45666 33525 ft 414 kts 216°
2026-05-07 01:44 37.41045 -78.47044 32983 ft 416 kts 215°
2026-05-07 01:44 37.38378 -78.48432 32429 ft 411 kts 214°
2026-05-07 01:44 37.35754 -78.49796 31874 ft 407 kts 214°
2026-05-07 01:44 37.33128 -78.51163 31340 ft 406 kts 214°
2026-05-07 01:45 37.30526 -78.52517 30806 ft 403 kts 213°
2026-05-07 01:45 37.27925 -78.53869 30260 ft 400 kts 213°
2026-05-07 01:45 37.25325 -78.55220 29721 ft 398 kts 212°
2026-05-07 01:45 37.22793 -78.56535 29204 ft 395 kts 212°
2026-05-07 01:46 37.20289 -78.57893 28676 ft 386 kts 217°
2026-05-07 01:46 37.18037 -78.59656 28174 ft 377 kts 221°
2026-05-07 01:46 37.15857 -78.61484 27675 ft 376 kts 221°
2026-05-07 01:46 37.13683 -78.63295 27179 ft 375 kts 221°
2026-05-07 01:47 37.11564 -78.65057 26695 ft 373 kts 220°
2026-05-07 01:47 37.09343 -78.66904 26193 ft 372 kts 221°
2026-05-07 01:47 37.07192 -78.68691 25700 ft 371 kts 220°
2026-05-07 01:47 37.05051 -78.70467 25201 ft 369 kts 220°
2026-05-07 01:48 37.02918 -78.72235 24719 ft 367 kts 221°
2026-05-07 01:48 37.00785 -78.74001 24226 ft 366 kts 220°
2026-05-07 01:48 36.98666 -78.75754 23747 ft 364 kts 220°
2026-05-07 01:48 36.96552 -78.77502 23261 ft 362 kts 220°
2026-05-07 01:49 36.94475 -78.79219 22789 ft 361 kts 220°
2026-05-07 01:49 36.92384 -78.80946 22316 ft 360 kts 220°
2026-05-07 01:49 36.90300 -78.82665 21831 ft 357 kts 220°
2026-05-07 01:49 36.88343 -78.84278 21387 ft 355 kts 221°
2026-05-07 01:50 36.86209 -78.86036 20896 ft 352 kts 221°
2026-05-07 01:50 36.84182 -78.87704 20435 ft 351 kts 221°
2026-05-07 01:50 36.82129 -78.89395 19971 ft 350 kts 220°
2026-05-07 01:50 36.80125 -78.91042 19506 ft 347 kts 221°
2026-05-07 01:51 36.78090 -78.92714 19054 ft 345 kts 221°
2026-05-07 01:51 36.76113 -78.94338 18595 ft 343 kts 221°
2026-05-07 01:51 36.74102 -78.95989 18136 ft 342 kts 221°
2026-05-07 01:51 36.72118 -78.97615 17679 ft 339 kts 221°
2026-05-07 01:52 36.70129 -78.99191 17242 ft 342 kts 217°
2026-05-07 01:52 36.67906 -79.00295 16816 ft 354 kts 203°
2026-05-07 01:52 36.65384 -79.00648 16294 ft 369 kts 186°
2026-05-07 01:52 36.62824 -79.00122 15742 ft 378 kts 175°
2026-05-07 01:53 36.60277 -78.99364 15248 ft 375 kts 174°
2026-05-07 01:53 36.57731 -78.98616 14747 ft 373 kts 174°
2026-05-07 01:53 36.55199 -78.97873 14257 ft 369 kts 174°
2026-05-07 01:53 36.52739 -78.97152 13776 ft 361 kts 174°
2026-05-07 01:54 36.50294 -78.96435 13300 ft 352 kts 174°
2026-05-07 01:54 36.47930 -78.95743 12839 ft 343 kts 174°
2026-05-07 01:54 36.45629 -78.95071 12391 ft 336 kts 174°
2026-05-07 01:54 36.43359 -78.94410 11946 ft 329 kts 174°
2026-05-07 01:55 36.41149 -78.93706 11542 ft 325 kts 167°
2026-05-07 01:55 36.39141 -78.92406 11128 ft 330 kts 148°
2026-05-07 01:55 36.37473 -78.90472 10707 ft 330 kts 139°
2026-05-07 01:55 36.35877 -78.88416 10266 ft 325 kts 139°
2026-05-07 01:56 36.34319 -78.86421 9877 ft 318 kts 139°
2026-05-07 01:56 36.32792 -78.84468 9513 ft 310 kts 139°
2026-05-07 01:56 36.31289 -78.82549 9109 ft 308 kts 139°
2026-05-07 01:56 36.29881 -78.80760 8731 ft 303 kts 140°
2026-05-07 01:57 36.28959 -78.79599 8477 ft 297 kts 139°
2026-05-07 01:57 36.27543 -78.77812 8143 ft 285 kts 140°
2026-05-07 01:57 36.26162 -78.76054 7614 ft 283 kts 140°
2026-05-07 01:57 36.24781 -78.74306 6877 ft 288 kts 139°
2026-05-07 01:58 36.23358 -78.72503 6129 ft 290 kts 139°
2026-05-07 01:58 36.21960 -78.70731 5430 ft 289 kts 139°
2026-05-07 01:58 36.20587 -78.68985 5068 ft 274 kts 140°
2026-05-07 01:58 36.19306 -78.67351 4989 ft 250 kts 141°
2026-05-07 01:59 36.18125 -78.65836 5025 ft 243 kts 140°
2026-05-07 01:59 36.16939 -78.64316 5001 ft 241 kts 141°
2026-05-07 01:59 36.15779 -78.62830 4992 ft 241 kts 140°
2026-05-07 01:59 36.14606 -78.61329 4973 ft 240 kts 141°
2026-05-07 02:00 36.13440 -78.59837 4968 ft 240 kts 140°
2026-05-07 02:00 36.12275 -78.58347 4975 ft 240 kts 140°
2026-05-07 02:00 36.11102 -78.56847 4976 ft 240 kts 140°
2026-05-07 02:00 36.09945 -78.55370 4975 ft 241 kts 140°
2026-05-07 02:01 36.08775 -78.53874 4978 ft 241 kts 140°
2026-05-07 02:01 36.07608 -78.52384 4983 ft 241 kts 141°
2026-05-07 02:01 36.06422 -78.50871 4985 ft 241 kts 140°
2026-05-07 02:01 36.05259 -78.49387 4984 ft 241 kts 141°
2026-05-07 02:02 36.04072 -78.47873 4983 ft 241 kts 141°
2026-05-07 02:02 36.02898 -78.46376 4985 ft 241 kts 140°
2026-05-07 02:02 36.01721 -78.44875 4988 ft 241 kts 140°
2026-05-07 02:02 36.00542 -78.43372 4986 ft 240 kts 141°
2026-05-07 02:03 35.99359 -78.41866 4983 ft 240 kts 140°
2026-05-07 02:03 35.98192 -78.40380 4991 ft 240 kts 140°
2026-05-07 02:03 35.97026 -78.38897 4988 ft 240 kts 141°
2026-05-07 02:03 35.96006 -78.37215 4988 ft 250 kts 116°
2026-05-07 02:04 35.95811 -78.35060 4983 ft 257 kts 78°
2026-05-07 02:04 35.96469 -78.33029 4985 ft 257 kts 61°
2026-05-07 02:04 35.97330 -78.31042 4980 ft 260 kts 60°
2026-05-07 02:04 35.98190 -78.29081 4984 ft 259 kts 61°
2026-05-07 02:05 35.99042 -78.27135 4984 ft 259 kts 61°
2026-05-07 02:05 35.99910 -78.25166 4986 ft 259 kts 60°
2026-05-07 02:05 36.00776 -78.23201 4983 ft 259 kts 60°
2026-05-07 02:05 36.01637 -78.21240 4986 ft 259 kts 60°
2026-05-07 02:06 36.02490 -78.19292 4982 ft 259 kts 60°
2026-05-07 02:06 36.03353 -78.17326 4989 ft 258 kts 60°
2026-05-07 02:06 36.04205 -78.15381 4990 ft 259 kts 60°
2026-05-07 02:06 36.05067 -78.13400 4989 ft 260 kts 60°
2026-05-07 02:07 36.05922 -78.11433 4988 ft 260 kts 60°
2026-05-07 02:07 36.07653 -78.07456 4988 ft 261 kts 60°
2026-05-07 02:07 36.08517 -78.05482 4984 ft 260 kts 60°
2026-05-07 02:08 36.09372 -78.03525 4983 ft 260 kts 60°
2026-05-07 02:08 36.10241 -78.01534 4971 ft 259 kts 60°
2026-05-07 02:08 36.11095 -77.99590 4974 ft 260 kts 60°
2026-05-07 02:08 36.11967 -77.97615 4969 ft 260 kts 59°
2026-05-07 02:09 36.12830 -77.95648 4965 ft 261 kts 60°
2026-05-07 02:09 36.13698 -77.93674 4962 ft 261 kts 60°
2026-05-07 02:09 36.14566 -77.91687 4962 ft 260 kts 60°
2026-05-07 02:09 36.15427 -77.89728 4965 ft 260 kts 60°
2026-05-07 02:10 36.16306 -77.87745 4963 ft 260 kts 59°
2026-05-07 02:10 36.17171 -77.85770 4964 ft 260 kts 60°
2026-05-07 02:10 36.18039 -77.83794 4967 ft 260 kts 60°
2026-05-07 02:10 36.18905 -77.81832 4964 ft 259 kts 59°
2026-05-07 02:11 36.19772 -77.79861 4960 ft 258 kts 60°
2026-05-07 02:11 36.20627 -77.77908 4970 ft 259 kts 60°
2026-05-07 02:11 36.21491 -77.75942 4970 ft 259 kts 59°
2026-05-07 02:11 36.22345 -77.73991 4959 ft 260 kts 60°
2026-05-07 02:12 36.23215 -77.72012 4967 ft 259 kts 60°
2026-05-07 02:12 36.24084 -77.70039 4979 ft 260 kts 59°
2026-05-07 02:12 36.24946 -77.68076 4964 ft 259 kts 59°
2026-05-07 02:12 36.25816 -77.66110 4965 ft 258 kts 59°
2026-05-07 02:13 36.26673 -77.64153 4969 ft 257 kts 60°
2026-05-07 02:13 36.27527 -77.62218 4973 ft 258 kts 60°
2026-05-07 02:13 36.28387 -77.60262 4970 ft 257 kts 60°
2026-05-07 02:13 36.29252 -77.58298 4973 ft 258 kts 59°
2026-05-07 02:14 36.30107 -77.56355 4967 ft 257 kts 59°
2026-05-07 02:14 36.30967 -77.54414 4972 ft 257 kts 59°
2026-05-07 02:14 36.31828 -77.52475 4969 ft 257 kts 59°
2026-05-07 02:14 36.32688 -77.50523 4968 ft 257 kts 59°
2026-05-07 02:15 36.33547 -77.48574 4966 ft 257 kts 60°
2026-05-07 02:15 36.34404 -77.46629 4968 ft 258 kts 59°
2026-05-07 02:15 36.35271 -77.44668 4972 ft 258 kts 59°
2026-05-07 02:15 36.36135 -77.42711 4962 ft 258 kts 59°
2026-05-07 02:16 36.36997 -77.40768 4962 ft 257 kts 59°
2026-05-07 02:16 36.37854 -77.38814 4968 ft 257 kts 59°
2026-05-07 02:16 36.38715 -77.36848 4963 ft 257 kts 59°
2026-05-07 02:16 36.39536 -77.34969 4966 ft 258 kts 60°
2026-05-07 02:17 36.40421 -77.32944 4960 ft 256 kts 60°
2026-05-07 02:17 36.41272 -77.30997 4967 ft 257 kts 60°
2026-05-07 02:17 36.42141 -77.29031 4964 ft 257 kts 59°
2026-05-07 02:17 36.43002 -77.27076 4966 ft 257 kts 60°
2026-05-07 02:18 36.43858 -77.25139 4969 ft 257 kts 60°
2026-05-07 02:18 36.44725 -77.23190 4970 ft 256 kts 60°
2026-05-07 02:18 36.45582 -77.21252 4971 ft 258 kts 60°
2026-05-07 02:18 36.46446 -77.19294 4967 ft 258 kts 60°
2026-05-07 02:19 36.47314 -77.17342 4966 ft 257 kts 59°
2026-05-07 02:19 36.48167 -77.15412 4967 ft 257 kts 60°
2026-05-07 02:19 36.49046 -77.13430 4964 ft 258 kts 59°
2026-05-07 02:19 36.49894 -77.11491 4965 ft 257 kts 59°
2026-05-07 02:20 36.50751 -77.09523 4965 ft 257 kts 60°
2026-05-07 02:20 36.51600 -77.07575 4969 ft 257 kts 59°
2026-05-07 02:20 36.52447 -77.05638 4969 ft 257 kts 59°
2026-05-07 02:20 36.53307 -77.03677 4974 ft 256 kts 60°
2026-05-07 02:21 36.54169 -77.01727 4973 ft 255 kts 59°
2026-05-07 02:21 36.55028 -76.99775 4975 ft 256 kts 59°
2026-05-07 02:21 36.55888 -76.97829 4971 ft 255 kts 59°
2026-05-07 02:21 36.56746 -76.95886 4977 ft 256 kts 59°
2026-05-07 02:22 36.57604 -76.93941 4975 ft 255 kts 59°
2026-05-07 02:22 36.58462 -76.92005 4977 ft 256 kts 59°
2026-05-07 02:22 36.59337 -76.90058 4974 ft 255 kts 59°
2026-05-07 02:22 36.60192 -76.88144 4973 ft 255 kts 59°
2026-05-07 02:23 36.61066 -76.86185 4980 ft 256 kts 59°
2026-05-07 02:23 36.61928 -76.84251 4978 ft 255 kts 59°
2026-05-07 02:23 36.62794 -76.82295 4977 ft 255 kts 59°
2026-05-07 02:23 36.63667 -76.80368 4973 ft 254 kts 54°
2026-05-07 02:24 36.64614 -76.78504 4976 ft 255 kts 58°
2026-05-07 02:24 36.65480 -76.76564 4972 ft 254 kts 59°
2026-05-07 02:24 36.66325 -76.74653 4979 ft 255 kts 59°
2026-05-07 02:24 36.67192 -76.72697 4972 ft 255 kts 59°
2026-05-07 02:25 36.68052 -76.70759 4975 ft 255 kts 59°
2026-05-07 02:25 36.68914 -76.68825 4979 ft 255 kts 59°
2026-05-07 02:25 36.69783 -76.66882 4974 ft 256 kts 59°
2026-05-07 02:25 36.70659 -76.64935 4971 ft 255 kts 59°
2026-05-07 02:26 36.71518 -76.63024 4971 ft 254 kts 59°
2026-05-07 02:26 36.72388 -76.61089 4972 ft 255 kts 59°
2026-05-07 02:26 36.73267 -76.59150 4971 ft 254 kts 59°
2026-05-07 02:26 36.74136 -76.57238 4975 ft 254 kts 59°
2026-05-07 02:27 36.75006 -76.55299 4970 ft 255 kts 59°
2026-05-07 02:27 36.75876 -76.53356 4973 ft 254 kts 59°
2026-05-07 02:27 36.76738 -76.51435 4965 ft 254 kts 59°
2026-05-07 02:27 36.77589 -76.49521 4963 ft 253 kts 59°
2026-05-07 02:28 36.78436 -76.47603 4971 ft 254 kts 59°
2026-05-07 02:28 36.79301 -76.45669 4966 ft 254 kts 59°
2026-05-07 02:28 36.80172 -76.43726 4965 ft 255 kts 59°
2026-05-07 02:28 36.81036 -76.41805 4968 ft 255 kts 59°
2026-05-07 02:29 36.81908 -76.39863 4965 ft 254 kts 59°
2026-05-07 02:29 36.82783 -76.37923 4959 ft 254 kts 58°
2026-05-07 02:29 36.83654 -76.36008 4962 ft 255 kts 59°
2026-05-07 02:29 36.84549 -76.34078 4959 ft 255 kts 54°
2026-05-07 02:30 36.85843 -76.32664 4961 ft 250 kts 18°
2026-05-07 02:30 36.87608 -76.32359 4948 ft 264 kts 345°
2026-05-07 02:30 36.89239 -76.33285 4945 ft 254 kts 313°
2026-05-07 02:30 36.90155 -76.35085 4950 ft 246 kts 282°
2026-05-07 02:31 36.90098 -76.37192 4958 ft 242 kts 250°
2026-05-07 02:31 36.89317 -76.39049 4953 ft 244 kts 240°
2026-05-07 02:31 36.88420 -76.40867 4992 ft 255 kts 240°
2026-05-07 02:31 36.87457 -76.42831 6049 ft 277 kts 241°
2026-05-07 02:32 36.86492 -76.44775 7954 ft 268 kts 240°
2026-05-07 02:32 36.85537 -76.46682 9607 ft 265 kts 241°
2026-05-07 02:32 36.84562 -76.48599 11039 ft 267 kts 240°
2026-05-07 02:32 36.83588 -76.50540 12371 ft 271 kts 240°
2026-05-07 02:33 36.82608 -76.52495 13590 ft 275 kts 240°
2026-05-07 02:33 36.81573 -76.54557 14463 ft 289 kts 241°
2026-05-07 02:33 36.80480 -76.56688 15331 ft 300 kts 241°
2026-05-07 02:33 36.79327 -76.58887 16234 ft 308 kts 241°
2026-05-07 02:34 36.78115 -76.61147 16722 ft 318 kts 240°
2026-05-07 02:34 36.76849 -76.63506 16908 ft 338 kts 241°
2026-05-07 02:34 36.75518 -76.65973 16966 ft 348 kts 240°
2026-05-07 02:34 36.74165 -76.68498 16961 ft 348 kts 240°
2026-05-07 02:35 36.72844 -76.70975 16969 ft 347 kts 240°
2026-05-07 02:35 36.71488 -76.73486 16962 ft 346 kts 240°
2026-05-07 02:35 36.70139 -76.75979 16965 ft 346 kts 240°
2026-05-07 02:35 36.68802 -76.78435 16964 ft 346 kts 240°
2026-05-07 02:36 36.67438 -76.80941 16963 ft 346 kts 240°
2026-05-07 02:36 36.66093 -76.83414 16968 ft 345 kts 240°
2026-05-07 02:36 36.64749 -76.85895 16967 ft 345 kts 240°
2026-05-07 02:36 36.63409 -76.88371 16964 ft 345 kts 240°
2026-05-07 02:37 36.62071 -76.90835 16963 ft 346 kts 240°
2026-05-07 02:37 36.60717 -76.93323 16964 ft 345 kts 240°
2026-05-07 02:37 36.59369 -76.95797 16963 ft 345 kts 240°
2026-05-07 02:37 36.58006 -76.98282 16961 ft 346 kts 240°
2026-05-07 02:38 36.56669 -77.00729 16957 ft 347 kts 240°
2026-05-07 02:38 36.55299 -77.03219 16962 ft 347 kts 240°
2026-05-07 02:38 36.54217 -77.05857 16966 ft 342 kts 252°
2026-05-07 02:38 36.53388 -77.08623 16954 ft 341 kts 253°
2026-05-07 02:39 36.52556 -77.11369 16963 ft 341 kts 252°
2026-05-07 02:39 36.51715 -77.14127 16961 ft 340 kts 252°
2026-05-07 02:39 36.50869 -77.16893 16970 ft 340 kts 252°
2026-05-07 02:39 36.50035 -77.19607 16969 ft 340 kts 252°
2026-05-07 02:40 36.49189 -77.22356 16973 ft 340 kts 252°
2026-05-07 02:40 36.48346 -77.25081 16970 ft 339 kts 252°
2026-05-07 02:40 36.47494 -77.27834 16975 ft 340 kts 252°
2026-05-07 02:40 36.46639 -77.30588 16972 ft 338 kts 252°
2026-05-07 02:41 36.45798 -77.33286 16968 ft 338 kts 252°
2026-05-07 02:41 36.44947 -77.36016 16976 ft 339 kts 252°
2026-05-07 02:41 36.44088 -77.38763 16973 ft 339 kts 252°
2026-05-07 02:41 36.43243 -77.41460 16976 ft 339 kts 252°
2026-05-07 02:42 36.42382 -77.44206 16975 ft 338 kts 252°
2026-05-07 02:42 36.41539 -77.46890 16976 ft 337 kts 252°
2026-05-07 02:42 36.40704 -77.49536 16979 ft 318 kts 252°
2026-05-07 02:42 36.39910 -77.52045 16987 ft 307 kts 252°
2026-05-07 02:43 36.39143 -77.54479 16976 ft 303 kts 252°
2026-05-07 02:43 36.38379 -77.56898 16975 ft 301 kts 252°
2026-05-07 02:43 36.37609 -77.59336 16980 ft 300 kts 252°
2026-05-07 02:43 36.36844 -77.61749 16979 ft 301 kts 252°
2026-05-07 02:44 36.36080 -77.64157 16976 ft 300 kts 252°
2026-05-07 02:44 36.35319 -77.66554 16982 ft 301 kts 251°
2026-05-07 02:44 36.34556 -77.68957 16981 ft 300 kts 251°
2026-05-07 02:44 36.33787 -77.71377 16976 ft 300 kts 251°
2026-05-07 02:45 36.33015 -77.73804 16977 ft 302 kts 251°
2026-05-07 02:45 36.32248 -77.76215 16862 ft 305 kts 251°
2026-05-07 02:45 36.31472 -77.78651 16478 ft 302 kts 251°
2026-05-07 02:45 36.30712 -77.81030 16111 ft 299 kts 250°
2026-05-07 02:46 36.29948 -77.83426 15727 ft 297 kts 250°
2026-05-07 02:46 36.29187 -77.85811 15335 ft 296 kts 250°
2026-05-07 02:46 36.28431 -77.88177 14937 ft 294 kts 250°
2026-05-07 02:46 36.27690 -77.90494 14557 ft 293 kts 250°
2026-05-07 02:47 36.26933 -77.92858 14162 ft 291 kts 250°
2026-05-07 02:47 36.26196 -77.95161 13777 ft 289 kts 250°
2026-05-07 02:47 36.25458 -77.97461 13386 ft 288 kts 250°
2026-05-07 02:47 36.24719 -77.99766 13018 ft 288 kts 250°
2026-05-07 02:48 36.23981 -78.02069 12640 ft 288 kts 250°
2026-05-07 02:48 36.23239 -78.04363 12250 ft 288 kts 249°
2026-05-07 02:48 36.22434 -78.06613 11880 ft 287 kts 248°
2026-05-07 02:48 36.21595 -78.08885 11490 ft 287 kts 247°
2026-05-07 02:49 36.20783 -78.11137 11103 ft 285 kts 249°
2026-05-07 02:49 36.20032 -78.13370 10742 ft 285 kts 250°
2026-05-07 02:49 36.19272 -78.15634 10353 ft 277 kts 250°
2026-05-07 02:49 36.18545 -78.17795 9985 ft 268 kts 250°
2026-05-07 02:50 36.17848 -78.19863 9637 ft 252 kts 250°
2026-05-07 02:50 36.17192 -78.21807 9324 ft 238 kts 250°
2026-05-07 02:50 36.16571 -78.23646 9022 ft 226 kts 250°
2026-05-07 02:50 36.15982 -78.25394 8762 ft 217 kts 250°
2026-05-07 02:51 36.15405 -78.27110 8455 ft 215 kts 250°
2026-05-07 02:51 36.14890 -78.28818 8168 ft 211 kts 256°
2026-05-07 02:51 36.14571 -78.30565 7889 ft 207 kts 258°
2026-05-07 02:51 36.14270 -78.32291 7624 ft 203 kts 258°
2026-05-07 02:52 36.13972 -78.33985 7354 ft 201 kts 258°
2026-05-07 02:52 36.13676 -78.35675 7080 ft 201 kts 258°
2026-05-07 02:52 36.13381 -78.37354 6816 ft 200 kts 258°
2026-05-07 02:52 36.13086 -78.39041 6557 ft 199 kts 258°
2026-05-07 02:53 36.12795 -78.40699 6289 ft 198 kts 258°
2026-05-07 02:53 36.12496 -78.42355 6032 ft 195 kts 255°
2026-05-07 02:53 36.11883 -78.43836 5819 ft 193 kts 239°
2026-05-07 02:53 36.11127 -78.45200 5825 ft 196 kts 240°
2026-05-07 02:54 36.10350 -78.46626 5698 ft 198 kts 240°
2026-05-07 02:54 36.09590 -78.48025 5624 ft 197 kts 238°
2026-05-07 02:54 36.08814 -78.49449 5513 ft 198 kts 239°
2026-05-07 02:54 36.08056 -78.50843 5414 ft 197 kts 238°
2026-05-07 02:55 36.07285 -78.52261 5312 ft 196 kts 238°
2026-05-07 02:55 36.06530 -78.53647 5230 ft 193 kts 239°
2026-05-07 02:55 36.05798 -78.54993 5147 ft 178 kts 238°
2026-05-07 02:55 36.05148 -78.56184 5065 ft 157 kts 240°
2026-05-07 02:56 36.04546 -78.57259 4933 ft 148 kts 236°
2026-05-07 02:56 36.03879 -78.58204 4706 ft 142 kts 231°
2026-05-07 02:56 36.03183 -78.59053 4519 ft 142 kts 229°
2026-05-07 02:56 36.02483 -78.59900 4332 ft 142 kts 230°
2026-05-07 02:57 36.01770 -78.60777 4137 ft 142 kts 229°
2026-05-07 02:57 36.01073 -78.61642 3960 ft 142 kts 230°
2026-05-07 02:57 36.00382 -78.62500 3790 ft 142 kts 230°
2026-05-07 02:57 35.99679 -78.63374 3603 ft 141 kts 230°
2026-05-07 02:58 35.98991 -78.64229 3416 ft 141 kts 229°
2026-05-07 02:58 35.98294 -78.65094 3232 ft 140 kts 229°
2026-05-07 02:58 35.97607 -78.65945 3050 ft 140 kts 229°
2026-05-07 02:58 35.96921 -78.66796 2859 ft 138 kts 228°
2026-05-07 02:59 35.96235 -78.67645 2675 ft 140 kts 229°
2026-05-07 02:59 35.95549 -78.68496 2482 ft 140 kts 229°
2026-05-07 02:59 35.94863 -78.69347 2311 ft 142 kts 227°
2026-05-07 02:59 35.94165 -78.70211 2128 ft 141 kts 227°
2026-05-07 03:00 35.93465 -78.71079 1935 ft 142 kts 227°
2026-05-07 03:00 35.92777 -78.71929 1770 ft 135 kts 227°
2026-05-07 03:00 35.92121 -78.72737 1607 ft 131 kts 227°
2026-05-07 03:00 35.91486 -78.73525 1423 ft 130 kts 227°
2026-05-07 03:01 35.90841 -78.74325 1253 ft 131 kts 227°
2026-05-07 03:01 35.90206 -78.75114 1080 ft 126 kts 226°
2026-05-07 03:01 35.89613 -78.75845 923 ft 117 kts 226°
2026-05-07 03:01 35.89043 -78.76549 720 ft 113 kts 225°
2026-05-07 03:02 35.88480 -78.77241 572 ft 114 kts 225°
2026-05-07 03:02 35.87917 -78.77940 450 ft 114 kts 224°
2026-05-07 03:02 35.87410 -78.78565 425 ft 81 kts 225°
2026-05-07 03:02 35.87148 -78.78889 418 ft 38 kts 224°
2026-05-07 03:03 35.87025 -78.79054 412 ft 14 kts 253°
2026-05-07 03:03 35.87077 -78.79137 410 ft 12 kts 348°
2026-05-07 03:03 35.87154 -78.79073 413 ft 15 kts 46°
2026-05-07 03:03 35.87236 -78.78974 417 ft 17 kts 44°
2026-05-07 03:04 35.87331 -78.78857 420 ft 20 kts 45°
2026-05-07 03:04 35.87428 -78.78737 423 ft 21 kts 46°
2026-05-07 03:04 35.87537 -78.78597 425 ft 24 kts 46°
2026-05-07 03:04 35.87655 -78.78453 425 ft 22 kts 46°
2026-05-07 03:05 35.87745 -78.78416 425 ft 12 kts 335°
2026-05-07 03:05 35.87816 -78.78373 424 ft 12 kts 359°
2026-05-07 03:05 35.87890 -78.78441 423 ft 11 kts 345°
2026-05-07 03:05 35.87939 -78.78400 422 ft 5 kts 43°
2026-05-07 03:06 35.87950 -78.78387 422 ft 0 kts 45°